Location: ????????
(55.3975°N, 38.2844°E)
Time: 14:38:19
(UTC+00:00)

BlueWalker 3 - Pass Details

Date: 18 August 2024
Orbit: 475 x 487 km, 53.2° (Epoch: 14 September)

Event Time Altitude Azimuth Distance (km) Brightness Sun altitude
Exits shadow 00:17:11 14° 267° (W) 1,474 3.9 -13.2°
Maximum altitude 00:20:24 58° 190° (S) 578 1.9 -12.9°
Drops below altitude 10° 00:24:08 10° 111° (ESE) 1,685 4.9 -12.6°
Sets 00:26:20 0° 107° (ESE) 2,566 5.9 -12.3°
